TimeEST,TemperatureF,Dew PointF,Humidity,Sea Level PressureIn,VisibilityMPH,Wind Direction,Wind SpeedMPH,Gust SpeedMPH,PrecipitationIn,Events,Conditions,WindDirDegrees,DateUTC
12:15 AM,42.8,40.1,90,30.31,10.0,North,3.5,-,N/A,,Overcast,360,2013-01-15 05:15:00
12:30 AM,42.8,40.5,91,30.29,10.0,Calm,Calm,-,N/A,,Overcast,0,2013-01-15 05:30:00
1:20 AM,42.1,40.5,94,30.26,5.0,Calm,Calm,-,N/A,,Overcast,0,2013-01-15 06:20:00
2:00 AM,41.9,41.5,99,30.25,7.0,Calm,Calm,-,N/A,,Overcast,0,2013-01-15 07:00:00
3:50 AM,41.9,41.9,100,30.28,10.0,NNW,5.8,-,N/A,,Overcast,330,2013-01-15 08:50:00
4:10 AM,41.9,41.5,99,30.27,10.0,NNW,4.6,-,N/A,,Overcast,340,2013-01-15 09:10:00
4:30 AM,41.9,41.0,97,30.25,10.0,Calm,Calm,-,N/A,,Overcast,0,2013-01-15 09:30:00
4:50 AM,41.9,41.2,97,30.28,10.0,NNW,4.6,-,N/A,,Overcast,330,2013-01-15 09:50:00
5:15 AM,41.9,41.2,97,30.25,10.0,Calm,Calm,-,N/A,,Overcast,0,2013-01-15 10:15:00
5:35 AM,41.9,40.6,95,30.25,5.0,Calm,Calm,-,N/A,,Overcast,0,2013-01-15 10:35:00
5:55 AM,41.9,41.4,98,30.25,5.0,Calm,Calm,-,N/A,,Overcast,0,2013-01-15 10:55:00
6:15 AM,41.9,41.7,99,30.27,5.0,Calm,Calm,-,N/A,,Overcast,0,2013-01-15 11:15:00
6:40 AM,41.9,41.5,99,30.28,4.0,North,3.5,-,N/A,,Overcast,350,2013-01-15 11:40:00
7:00 AM,41.5,41.5,100,30.29,2.5,North,4.6,-,N/A,,Overcast,350,2013-01-15 12:00:00
8:45 AM,41.4,41.4,100,30.35,1.8,North,4.6,-,N/A,,Overcast,360,2013-01-15 13:45:00
9:05 AM,41.4,41.4,100,30.34,1.8,North,4.6,-,N/A,,Overcast,10,2013-01-15 14:05:00
9:30 AM,41.5,41.5,100,30.33,2.0,NNE,3.5,-,N/A,,Overcast,20,2013-01-15 14:30:00
9:50 AM,41.7,41.7,100,30.33,2.5,North,4.6,-,N/A,,Overcast,10,2013-01-15 14:50:00
10:10 AM,41.9,41.9,100,30.35,4.0,NNW,3.5,-,N/A,,Overcast,340,2013-01-15 15:10:00
10:30 AM,41.9,41.9,100,30.35,2.0,NNW,5.8,-,N/A,,Overcast,330,2013-01-15 15:30:00
10:55 AM,41.9,41.9,100,30.34,2.0,North,4.6,-,N/A,,Overcast,360,2013-01-15 15:55:00
11:15 AM,41.9,41.9,100,30.33,2.0,North,4.6,-,N/A,,Overcast,360,2013-01-15 16:15:00
11:35 AM,42.1,42.1,100,30.32,2.5,North,4.6,-,N/A,,Overcast,360,2013-01-15 16:35:00
11:55 AM,42.1,42.1,100,30.30,2.5,Calm,Calm,-,N/A,,Overcast,0,2013-01-15 16:55:00
12:20 PM,42.3,42.1,99,30.30,3.0,North,3.5,-,N/A,,Overcast,360,2013-01-15 17:20:00
12:35 PM,42.3,42.1,99,30.30,4.0,North,3.5,-,N/A,,Overcast,350,2013-01-15 17:35:00
1:00 PM,42.4,42.1,99,30.30,4.0,North,4.6,-,N/A,,Overcast,350,2013-01-15 18:00:00
1:20 PM,42.4,41.9,98,30.28,4.0,ENE,3.5,-,N/A,,Overcast,70,2013-01-15 18:20:00
1:45 PM,42.3,41.0,95,30.27,5.0,NE,3.5,-,N/A,,Overcast,50,2013-01-15 18:45:00
2:05 PM,42.3,40.8,95,30.28,4.0,NE,4.6,-,N/A,,Overcast,40,2013-01-15 19:05:00
2:25 PM,41.5,41.0,98,30.25,4.0,East,5.8,-,N/A,,Overcast,90,2013-01-15 19:25:00
2:45 PM,41.4,40.6,97,30.26,5.0,ENE,5.8,-,N/A,,Overcast,70,2013-01-15 19:45:00
3:10 PM,41.2,39.7,95,30.27,5.0,Calm,Calm,-,N/A,,Overcast,0,2013-01-15 20:10:00
3:30 PM,41.4,40.5,97,30.26,4.0,Calm,Calm,-,N/A,,Overcast,0,2013-01-15 20:30:00
3:50 PM,41.2,40.3,97,30.27,4.0,Calm,Calm,-,N/A,,Overcast,0,2013-01-15 20:50:00
4:10 PM,41.4,40.1,95,30.30,5.0,Calm,Calm,-,N/A,,Overcast,0,2013-01-15 21:10:00
4:35 PM,41.5,40.3,95,30.28,4.0,ENE,3.5,-,N/A,,Overcast,70,2013-01-15 21:35:00
4:55 PM,41.4,39.4,93,30.27,5.0,Calm,Calm,-,N/A,,Overcast,0,2013-01-15 21:55:00
5:15 PM,41.2,39.2,93,30.26,7.0,NE,3.5,-,N/A,,Overcast,40,2013-01-15 22:15:00
5:35 PM,41.0,39.4,94,30.25,7.0,ENE,5.8,-,N/A,,Overcast,70,2013-01-15 22:35:00
6:00 PM,41.0,38.8,92,30.28,7.0,Calm,Calm,-,N/A,,Overcast,0,2013-01-15 23:00:00
6:20 PM,41.0,38.3,90,30.28,7.0,Calm,Calm,-,N/A,,Overcast,0,2013-01-15 23:20:00
6:40 PM,41.0,38.7,91,30.29,7.0,Calm,Calm,-,N/A,,Overcast,0,2013-01-15 23:40:00
7:00 PM,40.8,38.7,92,30.26,5.0,ENE,3.5,-,N/A,,Overcast,60,2013-01-16 00:00:00
7:25 PM,40.6,39.2,95,30.28,5.0,Calm,Calm,-,N/A,,Overcast,0,2013-01-16 00:25:00
7:45 PM,40.5,39.7,97,30.27,4.0,Calm,Calm,-,N/A,,Overcast,0,2013-01-16 00:45:00
8:25 PM,40.1,39.7,99,30.25,4.0,Calm,Calm,-,N/A,,Overcast,0,2013-01-16 01:25:00
8:50 PM,40.1,39.2,97,30.25,5.0,NNE,3.5,-,N/A,,Overcast,20,2013-01-16 01:50:00
9:10 PM,39.4,38.8,98,30.24,4.0,NNE,4.6,-,N/A,,Overcast,30,2013-01-16 02:10:00
9:30 PM,39.2,38.7,98,30.25,5.0,North,4.6,-,N/A,,Overcast,360,2013-01-16 02:30:00
10:15 PM,38.3,38.1,99,30.21,4.0,NE,3.5,-,N/A,,Overcast,40,2013-01-16 03:15:00
10:35 PM,38.3,37.9,99,30.20,4.0,NE,3.5,-,N/A,,Overcast,50,2013-01-16 03:35:00
10:55 PM,38.3,38.1,99,30.20,4.0,NNE,4.6,-,N/A,,Overcast,20,2013-01-16 03:55:00
11:15 PM,37.9,37.8,99,30.20,4.0,Calm,Calm,-,N/A,,Overcast,0,2013-01-16 04:15:00
11:40 PM,37.8,37.8,100,30.17,3.0,Calm,Calm,-,N/A,,Overcast,0,2013-01-16 04:40:00